Location: Pallagorio
(39.3000°N, 16.9000°E)
Time: 21:44:54
(UTC+00:00)

X-37B - Pass Details

Date: 24 January 2021
Orbit: 383 x 391 km, 45.0° (Epoch: 27 February)

Event Time Altitude Azimuth Distance (km) Brightness Sun altitude
Rises 16:49:50 0° 275° (W) 2,269 5.9 -9.2°
Reaches altitude 10° 16:52:02 10° 286° (WNW) 1,417 4.4 -9.6°
Maximum altitude 16:54:56 31° 351° (N) 709 1.8 -10.1°
Enters shadow 16:57:11 14° 50° (NE) 1,189 2.5 -10.5°
